DMSP 5D-2 F13 DEB, 40411

Orbit data source: Space-Track

DMSP 5D-2 F13 DEB, 40411 is space debris in SSO originally from a launch on Fri, 24 Mar 1995 UTC launched from the Air Force Western Test Range (AFWTR). Debris objects in space refer to the collection of defunct objects orbiting the Earth. Examples of debris include non-operational satellites, rocket bodies, and fragments generated from explosions, collisions, or faulty payload assembly.

Loading next visibility...
Identifier
40411, 1995-015Y
Orbit
SSO
Country
Flag of USUS
Related business
Manufacturer
Unknown
Mission
Spacecraft
Bus & Motor
Unknown
Mass
Unknown
Launch date (UTC)
1995-03-24 (31 years ago)
Launch vehicle
Unknown
Launch site
Air Force Western Test Range (AFWTR)
Object type
Payload
Rocket body
Debris
Shape & HBR
Unknown shape, 0.1 m
Radar Cross Section
Small (<0.1 m²)

Expand to show TLE details & history
Last TLE update: 4 days ago

TLE from 4 days ago
0 DMSP 5D-2 F13 DEB
1 40411U 95015Y   25286.02092440  .00001050  00000-0  55487-3 0  9992
2 40411  98.9116 298.6718 0024614   3.0126 357.1191 14.15877171547999
Epoch: 2025-10-13T00:30Z
TLE epoch observation values (Epoch: 2025-10-13T00:30:07.868Z)
Latitude
-0.00005°
Longitude
-90.69067°
Altitude
824.486 km
Speed
7.45 km/s
True Right ascension
19h 54m 41s
True Declination
0° 00' 00"
Sunlit
Object was in daylight at epoch
Visualization orbit readout
Latitude
Unknown
Longitude
Unknown
Altitude
Unknown
Speed
Unknown
Apparent Right ascension
Unknown
Apparent Declination
Unknown
Sunlit
N/A
Visualization observer readout
Local Sidereal Time
07:49:01
Azimuth
Unknown
Elevation
Unknown
Doppler factor
Unknown
Orbital elements
Apogee altitude
854.262 km
Perigee altitude
818.745 km
Semi-major axis
7,214.641 km
Eccentricity
0.00246
Inclination
98.9116°
RAAN
298.6718°
Arg. of periapsis
3.0126°
True anomaly
357.10488°
Mean anomaly
357.1191°
Eccentric anomaly
357.11199°
Mean motion
3.54178 °/min
Orbital period
101.64 mins
BSTAR
0.00055487

Documentation

Showing up to 5 results
|